Simultaneous Nadir Overpasses (SNOs) Predictions

Prediction of SNOs between METOP-A and NOAA-19 Satellite Orbit:

Table of predicted SNOs for the next 14.0 days since TLE Epoch: 1/16/2015
Index Date (METOP-A) Time (METOP-A) Lat,Lon (METOP-A) SZA (METOP-A ) Date (NOAA-19) Time (NOAA-19) Lat,Lon (NOAA-19) SZA (NOAA-19 ) Distance(km) Time Diff (sec)
1 01/21/2015 06:40:14 75.09, 77.44 95.02 01/21/2015 06:39:07 75.10, 74.66 95.13 79.57 67
2 01/21/2015 07:31:06 -74.58,-116.64 85.47 01/21/2015 07:29:54 -74.60,-116.62 85.43 3.12 72
3 01/21/2015 08:21:46 74.59, 50.72 94.54 01/21/2015 08:20:59 74.59, 50.66 94.55 1.68 47
4 01/21/2015 09:12:28 -74.56,-142.02 85.50 01/21/2015 09:11:56 -74.56,-142.00 85.50 0.93 32
5 01/21/2015 10:03:09 74.52, 25.20 94.46 01/21/2015 10:03:01 74.54, 25.29 94.48 2.94 8
6
